Total_Precipitation_Accumulation
2.53 2.70 2.49 2.25 2.23 2.20 2.57 3.02 3.37 3.13 2.70 2.39 2.16 2.14 2.26 2.39 2.62 2.41 2.45 2.46 2.20 1.96 1.74 1.68 1.63 1.59 1.59 1.67 1.82 1.87 1.89 1.98 2.17 2.42 2.66 2.93 3.18 3.46
2.68 2.75 2.60 2.36 2.45 2.30 2.39 2.75 3.06 3.25 2.92 2.20 2.16 2.07 2.20 2.13 2.52 2.33 2.48 2.47 2.13 1.94 1.73 1.63 1.55 1.48 1.47 1.50 1.55 1.63 1.69 1.69 1.71 1.82 1.97 2.14 2.26 2.42
2.68 2.63 2.60 2.64 2.66 2.51 2.60 2.71 2.80 3.12 3.12 2.47 2.29 2.37 2.47 2.45 2.51 2.39 2.29 2.28 2.10 2.05 1.79 1.61 1.50 1.43 1.42 1.39 1.40 1.39 1.43 1.46 1.46 1.50 1.59 1.67 1.73 1.77
3.00 3.11 2.84 2.84 2.87 2.71 2.72 2.73 2.79 3.03 3.07 2.85 2.64 2.59 2.64 2.58 2.58 2.40 2.03 1.94 2.04 2.24 2.02 1.76 1.59 1.46 1.38 1.33 1.31 1.28 1.29 1.34 1.38 1.36 1.38 1.43 1.51 1.53
2.79 3.05 3.04 3.21 2.95 2.97 2.90 2.78 2.78 2.79 2.99 2.83 2.62 2.77 2.79 2.75 2.68 2.28 2.09 2.18 2.01 2.29 2.23 1.88 1.67 1.56 1.41 1.29 1.20 1.17 1.15 1.18 1.26 1.32 1.33 1.31 1.31 1.33
2.52 2.65 2.77 3.05 3.04 3.10 2.92 2.94 3.07 3.13 3.25 3.10 2.89 2.96 3.08 3.09 2.98 2.60 2.43 2.32 2.19 2.02 2.17 1.95 1.81 1.70 1.55 1.40 1.28 1.18 1.16 1.16 1.19 1.22 1.27 1.29 1.30 1.28
2.51 2.47 2.45 2.69 2.78 2.84 2.59 2.77 3.07 3.13 3.21 3.14 3.02 3.03 3.02 3.18 2.92 2.75 2.59 2.56 2.44 2.17 2.11 1.86 1.77 1.63 1.59 1.59 1.50 1.37 1.26 1.22 1.24 1.23 1.22 1.22 1.26 1.33
2.78 2.70 2.56 2.50 2.50 2.53 2.55 2.63 2.78 2.80 2.86 2.96 2.87 2.84 2.88 3.03 3.21 3.10 2.92 2.76 2.48 2.16 2.22 1.96 1.83 1.76 1.60 1.47 1.59 1.54 1.40 1.29 1.24 1.24 1.26 1.28 1.31 1.33
2.76 2.73 2.42 2.27 2.50 2.40 2.56 2.58 2.38 2.31 2.33 2.48 2.48 2.47 2.90 3.22 3.55 3.23 3.07 2.91 2.64 2.45 2.39 2.02 1.88 1.85 1.69 1.63 1.76 1.55 1.37 1.26 1.22 1.21 1.28 1.32 1.34 1.35
2.40 2.52 2.46 2.34 2.37 2.49 2.41 2.15 1.92 1.90 1.97 1.90 1.91 2.16 2.61 3.19 3.50 3.46 3.45 3.21 2.86 2.49 2.33 2.01 1.78 1.70 1.59 1.62 1.81 1.70 1.51 1.34 1.25 1.21 1.19 1.22 1.27 1.32
2.14 2.15 2.17 2.03 2.17 2.29 2.17 1.94 1.76 1.70 1.75 1.77 1.77 1.99 2.26 2.62 3.05 3.27 3.17 3.00 2.56 2.15 2.04 1.93 1.78 1.78 1.70 1.61 1.62 1.79 1.64 1.47 1.39 1.31 1.27 1.24 1.26 1.31
2.24 2.20 2.25 2.00 1.91 1.86 1.78 1.80 1.61 1.51 1.66 1.64 1.61 1.67 1.80 2.13 2.62 2.69 2.70 2.79 2.49 2.14 1.87 1.92 1.82 2.01 1.94 1.65 1.53 1.54 1.54 1.59 1.59 1.49 1.40 1.38 1.39 1.23
2.00 1.87 1.90 1.91 1.70 1.54 1.51 1.47 1.41 1.49 1.60 1.59 1.51 1.51 1.65 1.85 2.04 2.29 2.53 2.57 2.40 2.01 1.81 2.02 1.92 2.00 2.03 1.74 1.55 1.50 1.47 1.45 1.49 1.55 1.59 1.61 1.58 1.41
1.97 1.95 1.99 2.01 1.75 1.60 1.43 1.29 1.36 1.37 1.39 1.50 1.45 1.38 1.42 1.55 1.82 2.11 2.41 2.53 2.46 2.30 2.28 2.32 2.19 2.11 2.11 1.93 1.67 1.51 1.49 1.50 1.51 1.54 1.60 1.85 1.81 1.75
1.93 2.25 2.28 2.20 1.96 1.67 1.58 1.61 1.56 1.40 1.37 1.40 1.35 1.30 1.37 1.53 1.83 2.17 2.42 2.62 2.60 2.44 2.36 2.30 2.28 2.35 2.41 2.14 1.86 1.73 1.71 1.64 1.57 1.57 1.61 1.66 1.71 1.77
1.91 2.19 2.37 2.35 2.21 1.98 1.86 1.79 1.59 1.50 1.55 1.53 1.55 1.59 1.71 1.85 1.99 2.13 2.36 2.54 2.61 2.44 2.36 2.33 2.35 2.47 2.43 2.26 2.14 1.97 1.84 1.77 1.74 1.79 1.81 1.79 1.77 1.73
2.14 2.30 2.43 2.54 2.56 2.48 2.36 2.27 2.15 1.99 1.81 1.75 1.80 1.80 1.86 1.97 2.03 2.18 2.42 2.53 2.47 2.23 2.22 2.31 2.42 2.52 2.53 2.50 2.28 1.95 1.86 1.76 1.74 1.88 1.92 1.85 1.73 1.67
2.10 2.16 2.40 2.60 2.68 2.76 2.80 2.68 2.46 2.27 2.10 2.06 2.00 1.96 2.00 2.02 2.07 2.22 2.43 2.53 2.39 2.20 2.13 2.20 2.45 2.63 2.64 2.48 2.22 2.00 1.88 1.76 1.68 1.76 1.79 1.75 1.60 1.46
1.90 2.01 2.14 2.26 2.46 2.67 2.74 2.70 2.49 2.39 2.42 2.39 2.29 2.23 2.24 2.25 2.24 2.32 2.49 2.60 2.56 2.40 2.32 2.36 2.48 2.56 2.43 2.07 1.82 1.77 1.78 1.72 1.74 1.72 1.67 1.63 1.54 1.47
1.60 1.79 2.00 2.15 2.32 2.56 2.71 2.74 2.67 2.61 2.62 2.67 2.63 2.55 2.51 2.42 2.32 2.25 2.39 2.51 2.56 2.54 2.48 2.40 2.32 2.34 2.33 2.15 1.97 1.77 1.70 1.78 1.78 1.75 1.69 1.68 1.65 1.69
1.52 1.56 1.65 1.86 2.08 2.33 2.58 2.76 2.75 2.64 2.60 2.65 2.64 2.59 2.56 2.52 2.36 2.24 2.30 2.50 2.56 2.49 2.33 2.13 2.06 2.31 2.51 2.66 2.41 1.93 1.74 1.78 1.87 1.89 1.89 1.99 1.90 1.79
1.58 1.58 1.68 1.85 2.05 2.28 2.49 2.59 2.64 2.64 2.60 2.57 2.50 2.44 2.43 2.41 2.25 2.20 2.22 2.30 2.34 2.34 2.30 2.30 2.49 2.67 2.69 2.67 2.31 1.97 1.87 1.90 2.01 2.11 2.03 1.93 1.85 1.74
1.69 1.69 1.72 1.81 1.97 2.18 2.34 2.46 2.51 2.56 2.59 2.61 2.56 2.46 2.42 2.41 2.35 2.30 2.28 2.31 2.32 2.33 2.46 2.55 2.58 2.67 2.61 2.55 2.46 2.31 2.16 2.10 2.12 2.07 1.85 1.73 1.66 1.59